RH
48 47 42 52 58 56 56 55 68 52 53 47 64 64 55 44 44 44 41 37 37 44 42 42 40 39 38 38 41 41 42 48 55 59 58 59 60 66 73 71 76 79 78 85
75 52 51 58 52 50 58 54 54 52 54 46 51 55 50 40 39 40 36 34 36 38 40 44 47 46 45 47 47 47 54 61 62 59 62 73 76 76 81 84 84 82 83 88
74 69 70 87 61 55 51 46 50 65 48 55 62 55 49 38 35 35 32 32 35 37 41 45 49 48 51 52 56 57 61 64 65 67 72 76 80 84 91 96 99 98 85 83
100 92 98 74 54 49 50 44 42 45 48 45 49 48 43 34 33 31 28 32 35 39 44 51 52 51 56 59 61 62 70 71 72 77 84 82 84 86 87 88 95 99 89 81
100 97 88 74 68 64 63 60 44 46 51 50 47 38 34 36 29 26 26 31 37 46 51 54 55 58 61 64 65 69 72 82 86 85 88 91 94 91 86 90 92 95 89 92
99 98 96 68 57 58 51 73 57 47 52 41 40 60 51 32 26 27 30 37 48 54 58 62 61 56 58 73 72 75 82 87 94 98 98 97 100 100 98 99 99 99 100 99
99 99 92 69 34 53 80 67 60 46 48 40 44 48 38 27 30 32 41 50 55 59 62 64 58 60 76 76 78 80 82 86 90 95 97 98 98 98 98 99 97 97 98 99
99 99 93 61 38 64 60 38 39 56 56 43 55 48 38 36 39 46 52 58 58 64 72 68 66 59 77 76 80 85 86 87 88 93 92 94 92 92 91 90 89 89 87 88
89 88 62 52 37 37 41 36 37 54 57 55 47 41 37 40 43 52 57 59 65 73 81 76 66 58 73 81 86 82 83 88 88 89 89 89 89 81 81 85 93 90 95 98
88 74 70 38 40 37 37 36 41 56 51 44 40 39 41 44 55 57 60 65 74 79 84 79 71 72 74 83 74 66 82 87 78 71 73 68 68 76 90 95 100 98 98 97
86 69 50 44 43 41 52 55 53 50 44 40 41 43 48 55 58 61 65 72 73 75 78 82 78 79 76 54 59 57 56 60 64 61 56 53 55 68 72 81 89 96 98 100
86 70 68 60 49 53 56 54 48 44 42 39 41 49 53 58 60 63 71 74 73 75 78 80 72 60 55 47 48 47 50 52 49 40 37 40 53 30 48 71 65 66 68 86
67 60 52 54 53 50 50 49 43 41 41 43 44 47 53 63 62 65 67 69 71 74 72 68 56 48 47 46 49 47 47 52 55 56 50 33 43 70 85 32 35 42 49 69
54 54 57 50 54 49 46 44 44 40 38 41 48 50 54 61 70 69 69 61 55 57 60 55 46 38 38 39 40 43 46 53 55 61 59 33 35 40 58 89 98 72 40 72
54 45 50 48 48 46 43 41 43 44 47 50 50 55 56 63 68 68 53 48 51 50 50 47 45 39 41 42 39 38 39 39 47 56 64 52 30 34 45 67 88 95 93 88
52 48 47 52 49 46 42 42 45 47 49 55 59 58 56 59 58 53 44 42 57 70 49 47 39 22 34 41 43 48 51 54 51 50 61 64 40 35 45 77 100 93 91 88
64 62 57 54 51 47 42 42 46 48 53 57 61 60 59 60 60 56 46 37 30 26 24 27 21 21 27 30 32 30 34 42 58 57 56 64 54 37 46 78 90 94 91 81
45 49 48 54 55 52 51 57 55 54 56 59 64 64 70 68 67 63 41 34 32 29 21 16 15 17 20 23 27 31 37 41 44 67 60 64 58 46 52 74 80 93 86 82
47 55 61 56 53 54 58 58 55 55 60 62 68 72 61 55 50 48 49 47 47 47 32 35 34 33 36 41 47 54 57 59 59 62 71 65 60 51 58 76 82 83 81 89
61 61 63 66 63 58 62 59 57 59 55 52 56 66 70 61 59 58 60 62 55 55 52 52 56 61 65 70 74 77 78 84 91 88 81 76 66 54 62 80 88 88 80 92
74 70 71 69 74 70 64 57 59 73 62 49 55 67 67 66 59 58 66 77 80 83 84 85 87 90 92 94 98 99 99 99 98 98 98 95 71 77 89 88 90 90 84 100
78 80 82 78 78 87 74 61 59 70 69 68 66 74 89 99 93 97 98 97 100 100 94 95 95 89 76 77 81 91 94 97 97 97 96 95 96 96 93 91 94 86 82 88
86 85 87 83 85 98 99 95 95 98 100 100 100 100 100 99 99 98 97 99 90 84 78 72 76 78 81 84 86 88 90 92 93 94 95 96 96 94 91 91 93 77 77 88
91 93 97 98 100 98 98 100 100 100 100 100 98 88 88 98 97 85 82 78 68 63 61 63 69 78 84 91 97 99 100 100 100 99 98 97 94 93 96 86 78 78 82 67
95 97 98 94 95 98 97 100 100 98 91 92 83 79 69 64 54 78 67 59 58 58 57 59 64 64 63 65 71 75 76 74 71 73 83 93 88 80 87 93 83 74 60 55
95 94 89 84 94 100 100 92 96 94 88 100 91 74 63 59 60 60 59 57 62 59 55 57 66 68 70 69 64 60 56 52 49 48 52 62 85 88 84 85 88 88 74 66
94 93 95 98 92 89 83 77 85 88 73 69 72 66 64 64 58 53 53 59 66 68 70 75 77 77 78 79 78 78 77 73 72 60 65 82 89 89 88 90 94 89 82 77
Wind_Speed
18 1 18 11 13 21 29 26 17 20 27 18 13 11 16 13 13 16 17 17 15 12 12 20 25 26 22 19 16 13 10 9 6 3 5 8 11 13 13 15 14 15 16 15
9 16 11 10 17 21 24 24 27 23 23 6 12 7 11 17 18 18 17 16 14 14 15 19 22 25 22 19 16 13 11 8 4 5 8 11 13 14 13 15 13 13 14 13
16 6 3 13 29 23 21 24 21 25 18 9 7 16 18 18 21 23 21 18 19 19 17 20 23 27 24 20 18 12 8 5 5 8 11 13 13 13 13 14 12 11 11 16
2 8 11 9 9 24 26 25 22 24 9 16 13 20 19 23 26 21 19 19 17 16 20 22 24 24 22 19 14 9 7 7 7 7 7 9 9 9 9 10 11 11 16 17
5 10 5 10 5 7 13 25 27 21 9 8 7 6 4 13 20 22 23 18 20 25 27 28 28 25 20 14 10 7 9 5 4 4 6 7 8 10 11 13 16 17 18 19
4 7 12 1 8 7 4 19 9 15 12 12 14 8 6 12 15 16 18 26 27 26 25 25 25 21 17 14 10 8 4 2 3 4 5 7 10 11 12 13 16 18 16 19
6 5 7 6 4 5 11 5 5 18 14 19 14 5 9 18 17 17 22 29 30 27 24 25 22 19 16 13 9 5 3 1 1 3 6 6 9 11 13 16 18 19 20 21
2 1 11 6 4 9 5 2 2 3 6 14 5 10 20 21 20 21 21 27 27 24 21 22 20 16 15 12 9 6 4 2 2 2 2 4 8 12 14 16 18 19 20 20
8 6 2 4 2 1 2 3 4 6 5 12 14 16 18 20 20 19 21 25 25 25 21 19 16 15 16 13 11 8 6 6 4 3 4 4 8 12 16 17 18 18 17 18
3 5 7 4 2 2 2 1 3 5 11 14 18 18 18 16 17 16 19 21 24 24 19 18 16 16 17 16 11 10 10 6 5 6 8 10 10 11 16 18 15 15 17 18
4 3 2 4 6 5 5 9 12 8 10 17 19 16 18 17 16 13 17 19 23 22 19 21 22 20 18 15 13 11 9 8 5 6 9 12 13 13 13 13 14 18 20 22
7 9 7 6 7 5 9 9 14 19 14 11 15 18 17 14 14 18 18 19 21 23 25 26 23 20 16 13 11 10 8 6 5 7 10 10 12 18 14 13 17 16 19 19
5 5 3 5 8 7 7 12 12 14 18 19 14 15 14 14 15 21 21 22 22 23 25 25 22 19 16 13 11 9 7 4 1 3 7 11 11 12 16 23 22 23 22 21
9 11 5 7 7 9 11 11 12 13 13 13 16 18 18 13 19 19 18 23 25 26 26 25 22 20 17 14 12 9 7 5 5 5 6 8 9 12 13 16 20 28 27 23
10 2 7 8 13 13 13 15 15 13 13 11 15 16 18 14 12 16 24 24 24 24 24 23 22 21 19 17 14 11 9 8 9 10 10 9 10 12 13 14 18 22 24 23
6 9 14 16 16 16 15 14 17 11 11 10 11 11 16 19 19 22 22 23 22 19 27 27 25 22 21 19 16 15 15 14 13 14 14 13 12 12 13 13 13 14 18 22
14 9 13 14 15 16 14 13 15 13 11 12 11 17 18 17 17 20 25 28 29 27 28 27 25 19 19 19 18 18 18 18 19 18 18 17 15 14 13 13 14 17 20 22
12 13 17 19 17 15 11 9 12 12 11 15 19 20 16 15 12 19 27 28 25 20 20 20 19 18 17 18 20 21 22 23 22 24 23 19 17 15 15 14 15 17 21 23
13 14 12 14 15 13 13 12 11 14 18 21 19 13 20 23 24 25 22 21 19 16 20 17 18 19 19 19 21 23 25 26 27 27 26 21 18 17 16 14 14 16 18 21
10 8 12 11 12 15 12 12 18 16 20 23 20 16 12 15 14 11 12 16 17 14 13 12 10 10 11 13 15 18 20 23 24 25 25 23 21 18 16 15 15 16 17 19
11 11 12 12 10 12 16 21 20 11 16 20 18 13 11 8 8 8 7 3 2 1 4 6 8 9 10 12 13 16 18 20 21 23 25 21 18 15 17 17 16 15 16 15
10 10 10 11 11 9 15 19 21 20 18 15 16 17 16 13 12 9 7 3 0 3 3 3 4 5 9 14 13 13 13 13 13 12 12 14 17 17 18 18 18 17 17 17
9 9 9 10 12 13 18 19 18 17 16 16 15 13 11 9 7 6 3 4 3 2 4 5 5 6 7 8 8 8 7 9 11 13 14 16 17 17 19 20 18 18 20 19
11 11 13 18 20 17 12 10 14 14 18 16 14 13 14 11 8 7 6 4 1 2 4 6 7 8 9 10 10 12 14 15 16 17 18 18 19 20 22 19 20 19 18 19
13 14 14 12 9 7 14 14 19 20 20 17 15 13 10 7 5 7 3 1 4 6 7 8 9 11 13 12 11 11 12 13 15 17 19 21 22 23 23 23 23 21 21 22
10 6 10 12 13 15 16 17 12 17 17 12 9 9 6 4 3 1 3 6 7 9 13 13 11 12 15 16 15 17 22 23 24 25 26 28 28 28 28 28 26 25 24 24
14 15 14 12 15 20 20 18 17 13 12 10 8 6 4 4 4 6 8 10 12 13 14 16 16 17 18 19 22 24 25 26 26 27 27 26 25 25 26 26 26 27 26 24
Wind_Direction
231 224 199 189 192 200 216 222 211 243 242 227 187 185 189 167 157 163 167 163 162 153 149 152 152 151 147 144 145 141 133 133 113 69 4 345 347 351 348 342 344 345 343 340
215 218 219 235 224 217 219 222 241 250 253 188 193 144 152 174 168 171 172 165 155 153 155 156 150 150 150 148 143 149 143 123 87 16 7 7 2 358 350 346 343 342 341 340
224 168 172 252 228 225 227 228 227 233 244 150 168 180 180 174 177 177 174 169 163 163 158 151 153 155 152 149 146 140 124 96 57 31 27 14 1 354 349 345 340 339 352 352
191 138 216 250 204 223 229 237 233 244 207 192 188 195 188 183 175 175 169 166 162 155 148 144 148 151 147 146 141 126 109 75 48 36 24 6 356 346 336 338 344 335 342 342
190 200 298 263 209 159 189 238 231 234 195 177 129 87 11 185 186 175 168 159 153 146 142 146 150 149 143 128 128 114 72 73 57 33 17 348 329 330 341 340 343 344 337 332
169 202 224 4 190 178 105 264 178 188 178 147 143 165 219 172 156 156 156 151 141 138 136 138 147 147 144 141 117 93 122 86 45 10 340 316 318 333 340 342 338 337 328 326
189 226 280 232 178 143 170 257 216 183 171 162 183 189 145 154 153 146 139 134 132 135 139 146 147 152 139 120 124 145 133 93 351 304 293 299 325 338 343 348 347 339 331 327
148 162 253 154 85 173 220 30 50 163 163 180 112 123 142 143 140 139 135 132 134 131 132 146 153 145 134 141 152 155 169 191 250 258 285 334 349 351 354 352 347 338 333 326
189 206 266 245 195 182 203 175 162 125 115 124 123 131 137 137 138 135 132 130 133 131 133 140 139 156 151 153 159 163 151 143 136 61 43 18 4 5 357 349 338 329 323 320
109 239 230 221 253 215 165 107 91 114 130 133 137 139 136 135 132 129 132 133 134 134 128 135 154 155 156 158 158 150 147 136 101 73 43 34 25 5 348 340 328 319 321 322
254 262 7 277 232 179 126 112 105 101 128 136 133 138 136 133 128 126 128 137 137 127 147 160 162 158 159 158 156 146 136 123 94 50 31 21 11 356 343 344 337 321 316 315
212 179 184 209 194 143 141 143 137 128 124 127 133 133 130 125 129 132 132 137 134 154 159 162 161 159 161 159 161 157 152 129 83 45 28 15 358 352 356 342 344 336 329 319
204 168 124 97 125 142 142 150 140 134 134 134 132 132 129 131 134 135 139 149 156 160 162 163 165 167 169 171 174 182 179 176 97 1 359 357 353 341 337 340 341 342 341 338
128 104 68 163 171 149 131 130 118 115 120 126 128 124 128 127 131 140 153 162 165 165 167 170 174 178 179 187 191 198 208 219 257 276 300 330 331 333 327 324 323 327 337 336
179 138 164 135 126 127 127 127 120 120 119 116 125 129 135 139 145 157 164 167 168 171 175 181 188 194 195 202 210 217 229 241 247 257 266 290 309 312 321 326 323 321 329 335
141 125 135 140 140 137 136 136 123 129 128 128 132 138 144 146 151 159 164 168 164 183 192 196 202 204 207 216 225 236 245 253 259 260 263 264 288 300 314 322 318 314 315 318
122 130 137 140 143 143 155 145 150 152 141 142 144 140 136 137 145 160 177 185 193 197 200 204 214 213 213 223 234 247 253 258 259 259 260 259 272 290 299 302 307 312 314 321
160 159 160 154 154 149 139 129 130 138 149 144 140 141 137 148 170 183 190 194 203 213 215 222 234 241 239 239 247 255 258 261 266 259 258 255 263 277 283 292 301 306 314 323
144 147 146 150 149 141 136 135 142 136 136 142 141 155 168 180 186 192 193 195 207 221 236 243 250 257 263 266 269 271 268 270 269 270 258 256 258 265 272 282 294 302 313 321
98 107 119 113 119 132 127 132 136 131 150 153 156 154 173 190 192 188 189 203 222 235 259 283 288 283 280 279 277 279 275 273 274 271 266 251 251 259 271 278 286 297 311 319
108 112 114 117 104 101 123 139 134 127 150 162 163 174 172 156 181 177 147 143 60 212 247 256 267 276 285 292 286 282 280 279 275 271 259 247 251 259 270 274 281 289 303 307
116 112 108 108 105 88 110 133 133 130 133 124 125 127 125 116 118 103 97 118 352 344 308 301 295 304 304 300 302 295 287 280 273 256 246 254 262 266 270 274 278 285 293 297
95 103 102 107 110 103 92 100 107 116 115 120 122 118 111 115 121 129 155 142 111 52 4 348 337 323 319 311 309 301 294 284 279 275 272 270 264 267 271 275 275 285 290 290
98 92 97 104 111 107 104 101 107 114 121 123 123 127 129 123 106 103 103 128 123 311 310 304 299 298 296 289 282 280 280 282 283 281 279 272 270 272 272 270 277 283 286 290
101 111 115 112 103 106 120 123 119 124 124 120 122 123 120 109 109 148 142 346 309 305 300 294 286 284 283 278 275 277 281 286 289 290 285 278 276 277 273 271 275 274 283 289
111 108 109 121 127 130 134 136 128 139 137 133 136 134 120 101 85 29 292 287 279 289 292 288 278 278 278 278 278 288 291 291 290 289 286 283 279 277 273 270 272 271 281 285
97 109 104 98 125 138 143 143 143 154 153 148 145 158 172 189 237 260 268 266 267 280 278 275 278 278 279 279 286 289 284 282 285 284 283 283 282 281 279 277 273 277 278 279